Temp
54 53 53 53 54 55 56 57 57 58 59 60 60 60 58 58 56 56 57 61 63 70 69 63 64 68 70 69 71 71 72 71 70 72 68 69 72 63 57 57 58 59 57 57 56 56 57 59 60 62 62 63 63 63 61 61 60 57 61 64 64 62 59 59 59 63 65 67 66 63 62 61 62 62
54 54 54 54 54 56 56 56 56 58 58 57 58 58 59 60 57 57 56 59 66 66 68 67 64 66 67 68 68 68 70 68 70 74 72 71 72 62 56 56 55 56 57 55 54 53 55 58 61 63 61 62 63 61 59 60 59 58 62 65 65 61 59 59 60 62 64 65 64 62 61 61 61 61
54 54 53 54 54 55 55 56 56 57 57 57 57 57 58 59 59 58 58 56 62 68 65 66 67 66 67 66 65 67 68 69 71 73 72 73 67 62 62 56 56 56 56 54 54 55 54 55 58 60 62 62 62 61 61 60 60 61 64 62 61 62 60 59 61 63 65 65 64 63 61 62 60 61
54 54 53 54 54 55 55 55 55 55 57 58 57 57 57 58 58 57 57 55 58 67 67 67 67 69 68 67 65 65 67 67 62 72 73 72 65 69 71 57 56 56 55 54 55 58 57 55 57 60 61 61 62 62 61 62 61 61 60 58 59 60 58 58 60 64 65 64 64 62 61 61 60 60
53 53 53 54 55 55 54 54 55 55 56 56 55 55 54 53 55 54 54 53 54 61 68 66 66 67 67 67 67 65 66 67 66 66 72 72 71 71 72 69 56 55 55 54 53 54 54 54 58 60 60 61 61 60 59 59 58 58 57 56 56 56 57 58 58 61 64 63 62 61 60 60 59 59
53 53 53 53 53 54 53 53 54 55 54 54 54 54 53 52 52 54 52 51 52 53 60 64 68 66 67 64 67 64 64 66 69 69 70 72 73 71 71 68 67 54 54 54 53 54 54 53 55 56 55 56 57 57 56 55 54 57 54 52 54 58 58 59 57 58 61 62 61 60 60 59 59 59
53 52 52 52 52 52 51 52 53 54 53 53 52 52 53 51 52 52 52 50 49 50 53 58 61 65 65 64 64 65 65 65 66 66 67 69 70 71 71 71 72 56 53 52 53 53 53 53 53 54 54 54 54 55 54 54 53 53 53 51 53 55 55 55 55 55 59 61 61 59 59 58 59 60
52 52 51 51 51 51 50 51 52 52 52 51 51 52 53 52 51 51 51 50 48 50 50 56 59 61 64 66 66 66 65 64 65 65 66 69 70 71 71 72 73 65 52 53 53 53 53 53 52 52 53 53 54 53 53 53 53 52 53 52 53 53 53 53 52 53 56 59 60 58 58 58 60 61
52 52 51 51 51 51 49 50 50 50 49 50 51 50 51 51 51 51 50 49 49 48 49 51 56 59 62 66 67 66 63 62 63 65 65 66 65 66 70 71 73 62 51 53 53 52 52 52 52 52 52 53 53 52 53 53 53 53 53 52 52 52 52 52 52 52 53 54 56 60 58 57 61 62
53 52 52 51 51 50 49 49 49 49 49 49 49 49 49 49 49 48 49 50 49 48 48 50 51 56 57 60 63 65 65 63 61 62 63 65 66 64 64 68 70 70 62 58 56 54 54 53 52 52 53 52 52 52 52 52 53 53 52 52 52 52 51 51 51 51 51 52 52 56 58 57 59 61
53 53 53 52 51 50 50 49 48 48 47 47 47 48 47 48 47 47 49 49 49 48 47 49 51 53 56 58 58 63 66 65 63 61 60 60 63 66 63 62 65 67 66 58 53 55 57 57 58 53 51 52 53 52 52 53 53 53 52 51 51 51 51 51 51 51 51 51 50 51 53 55 58 61
53 53 53 52 52 51 51 49 49 48 47 47 46 47 47 47 46 45 46 47 48 48 48 48 49 52 53 55 59 62 63 61 61 62 61 59 60 62 63 63 63 65 67 63 57 55 55 56 56 52 52 52 53 52 53 53 53 53 52 51 50 50 50 50 51 51 51 52 49 49 50 50 53 58
53 53 52 52 52 51 50 48 48 47 47 46 44 45 46 45 44 44 45 46 46 47 48 48 51 51 52 55 56 57 58 59 60 62 62 60 60 61 61 62 64 65 63 64 62 60 58 58 58 60 61 61 56 56 55 56 53 53 51 50 50 50 50 50 50 51 51 52 51 49 49 50 50 51
52 52 51 50 49 47 47 47 46 44 44 45 45 45 45 44 43 43 43 44 45 46 45 47 49 49 50 52 54 55 59 62 64 61 61 59 60 60 59 60 61 63 63 62 61 62 62 60 61 62 60 62 58 62 60 64 60 54 50 50 50 50 50 50 50 50 51 51 51 49 49 49 49 49
50 50 51 50 49 48 47 48 45 44 43 42 42 42 43 44 43 42 41 42 44 44 44 47 48 48 48 51 54 55 57 59 60 61 61 60 60 58 57 56 59 63 62 60 59 58 61 61 60 61 61 62 60 62 61 57 54 52 50 50 50 50 50 50 49 49 49 50 50 50 49 49 49 48
49 48 48 48 48 48 48 48 47 45 43 42 41 41 41 41 41 42 43 43 42 43 43 44 45 46 48 50 53 54 56 57 59 60 60 60 59 58 57 58 58 61 62 59 57 57 59 59 59 60 61 62 61 62 59 53 52 51 50 50 50 49 49 49 49 49 49 49 49 49 49 48 48 47
48 47 46 46 47 47 47 48 47 46 45 43 42 42 42 43 44 42 41 41 45 46 44 43 43 45 47 48 51 55 55 57 57 58 59 59 59 59 59 60 62 59 61 59 57 56 57 59 57 58 61 63 62 62 56 53 51 51 50 50 49 49 49 49 49 49 48 48 49 48 48 48 47 47
48 47 45 45 45 47 47 47 46 44 44 43 44 45 46 48 47 45 44 43 42 44 45 44 43 46 48 47 50 53 54 52 53 56 57 60 59 59 59 61 61 60 60 58 57 56 57 57 57 57 60 62 62 63 58 51 51 50 50 49 49 49 49 49 48 48 48 48 48 48 48 47 47 46
48 47 46 46 46 46 46 47 44 43 43 42 43 44 45 46 47 48 49 49 49 48 48 47 47 48 50 51 52 53 54 54 55 56 57 59 60 61 62 60 60 58 59 60 58 54 57 57 56 57 60 60 61 63 56 51 50 50 50 49 49 48 48 48 48 48 48 47 48 47 47 46 46 45
49 48 47 46 46 46 46 45 40 40 43 43 43 42 43 44 45 47 47 45 45 46 47 47 48 48 49 47 50 51 52 53 53 53 55 58 59 58 57 56 57 57 58 60 58 57 57 57 56 56 59 59 58 60 63 52 51 50 50 49 48 48 48 48 47 47 47 47 47 47 46 45 44 44
50 49 49 48 47 47 47 43 38 39 40 42 41 41 41 42 43 44 47 45 43 42 41 41 41 41 41 41 41 42 42 45 48 47 45 46 56 56 56 56 57 56 56 57 58 58 57 56 56 56 57 57 56 58 58 58 51 50 49 49 48 48 48 47 47 47 47 47 47 46 45 44 43 43
51 50 47 48 48 47 47 40 38 38 41 42 41 40 39 39 40 42 44 44 44 42 42 42 41 41 41 41 41 41 41 41 44 45 42 47 54 56 56 55 55 56 55 55 58 56 56 56 56 55 53 53 55 57 57 56 53 49 49 48 48 48 47 47 47 47 47 46 46 45 44 43 44 52
51 50 49 47 46 45 43 38 39 38 41 43 41 40 39 37 38 39 40 39 41 43 44 46 48 48 48 50 49 47 43 42 44 47 46 49 52 56 57 57 56 53 54 56 59 55 55 54 55 54 49 50 48 49 54 52 51 51 52 50 50 47 47 47 46 46 46 46 45 44 43 43 48 58
50 49 50 49 43 40 39 39 38 39 38 42 42 41 37 35 34 38 39 41 42 42 42 44 47 48 50 52 52 52 52 51 50 50 49 50 53 56 58 58 58 57 58 57 57 56 56 55 53 54 54 50 48 48 49 51 50 51 51 50 49 47 47 46 46 45 45 45 44 43 43 45 50 57
48 48 49 49 44 40 39 39 39 39 39 39 42 41 37 35 36 38 39 40 41 41 41 43 45 46 48 49 51 51 53 54 55 52 51 53 55 57 58 57 58 59 61 56 53 57 52 53 51 51 51 49 48 45 47 49 50 50 50 50 48 47 48 48 48 48 45 43 43 43 44 46 48 54
48 48 48 48 44 39 39 39 39 39 39 39 43 40 37 36 36 38 40 40 40 40 40 41 42 43 44 45 48 50 53 55 56 56 55 54 56 58 60 60 59 57 59 55 50 57 52 50 51 50 48 46 45 46 44 45 47 48 50 49 48 47 48 47 46 45 45 46 45 45 47 46 47 47
47 48 48 47 42 39 39 39 39 39 39 41 42 37 37 37 36 38 38 38 38 37 38 39 39 41 43 43 44 46 47 49 50 52 55 57 57 56 57 59 61 62 61 55 54 57 54 52 51 51 48 48 44 44 44 43 43 47 47 46 46 47 46 45 43 43 44 44 45 44 44 43 43 45
48 47 47 45 39 39 39 40 40 40 40 41 38 38 37 37 38 38 37 36 36 36 36 36 36 38 41 42 43 44 46 47 49 50 50 51 54 57 58 56 54 56 56 54 54 56 55 53 51 52 51 47 45 43 42 43 44 45 44 45 45 45 45 44 43 43 43 45 45 46 47 46 48 48
48 42 39 39 40 40 40 40 42 43 42 39 39 38 38 39 38 37 36 35 35 35 34 35 35 36 39 41 43 44 45 47 49 50 50 50 50 51 50 50 50 51 54 54 55 55 55 53 51 52 50 48 47 46 44 42 43 42 42 41 40 42 43 44 43 42 42 44 45 46 46 47 46 47
40 40 40 41 41 43 44 48 48 47 45 40 40 39 40 38 38 37 35 35 34 34 34 35 35 35 37 41 44 44 45 45 44 46 48 48 48 50 50 50 49 50 51 53 54 54 53 52 51 51 49 48 48 45 44 42 41 42 42 42 41 42 43 43 43 42 42 42 43 44 45 46 45 46
49 47 46 46 42 43 41 42 43 44 44 45 44 42 40 38 38 37 36 35 34 34 34 34 35 35 38 41 42 42 42 42 44 46 46 46 45 47 48 48 46 46 47 49 49 50 51 50 50 50 47 45 45 45 44 44 41 41 41 41 41 38 40 42 42 42 43 42 43 43 44 44 45 45
49 49 45 46 50 49 49 49 49 48 47 46 44 42 40 39 38 38 38 38 36 35 35 35 36 36 37 38 39 41 41 41 43 46 45 46 45 46 49 46 44 45 45 47 48 47 45 48 48 47 47 45 43 43 44 43 42 41 40 41 41 41 41 41 41 41 42 42 41 40 41 43 43 44
50 49 48 48 47 47 44 45 46 46 45 44 45 43 41 39 38 37 36 35 35 35 35 35 35 35 36 36 38 39 40 41 42 45 47 48 48 48 47 43 42 42 42 43 43 44 45 45 45 45 45 45 45 45 43 40 41 41 40 40 40 40 41 41 41 40 42 41 39 40 40 41 42 42
47 45 45 46 45 44 45 43 43 43 44 41 41 42 39 39 38 36 36 35 35 35 35 35 35 35 35 35 36 37 37 40 41 42 42 46 48 46 44 42 42 42 42 42 42 43 43 44 44 44 43 42 43 43 43 42 40 41 41 41 40 39 40 41 41 42 42 40 39 38 38 39 41 41
44 44 44 44 44 43 44 42 43 43 43 42 41 41 40 40 38 37 36 35 36 36 36 36 36 36 35 35 36 36 36 38 40 42 43 45 44 43 42 41 40 41 42 42 42 43 44 43 43 42 42 42 41 42 43 43 42 41 41 40 40 40 40 41 41 41 42 41 41 38 37 38 39 41
44 44 43 43 43 42 41 42 42 43 43 43 42 41 41 40 40 38 38 37 37 37 37 38 37 37 36 35 35 36 37 38 38 40 40 40 41 41 41 41 40 41 41 41 42 43 44 43 42 39 37 37 36 35 36 41 42 42 39 38 40 40 40 41 41 41 41 40 40 38 35 35 37 39
44 43 45 44 45 44 42 43 42 42 43 43 43 42 41 41 40 39 40 39 39 39 38 38 38 37 37 37 37 35 36 37 36 37 39 40 40 40 39 38 37 38 39 40 41 42 43 41 41 39 37 36 34 32 32 36 39 41 41 37 36 38 38 38 38 37 39 39 39 38 36 36 36 39
44 45 44 45 45 45 44 44 43 42 43 44 44 43 42 43 44 44 45 42 39 40 40 39 39 38 37 38 37 36 35 37 36 36 36 37 37 36 36 36 36 36 36 37 38 39 40 40 39 39 37 35 33 33 32 34 35 37 41 39 35 34 36 36 35 35 36 38 38 39 39 37 37 39
46 45 45 45 45 45 44 44 43 43 45 45 44 43 43 45 45 44 43 41 41 41 40 39 39 39 38 38 38 38 36 35 35 35 35 35 35 35 35 36 35 36 36 35 36 37 37 36 36 36 37 36 35 34 35 33 33 36 39 41 39 36 36 36 35 35 35 35 35 37 36 37 37 37
46 46 46 46 46 46 45 45 45 45 45 45 46 46 45 44 45 44 43 42 41 40 42 41 40 40 41 40 39 39 38 36 35 35 35 36 35 36 36 37 36 36 35 34 34 34 35 34 35 35 35 35 35 36 36 35 35 36 38 39 41 40 39 38 36 35 35 36 37 35 35 37 36 39
46 46 47 47 47 47 45 45 45 45 45 46 46 43 46 47 46 42 44 43 41 42 43 43 41 41 41 41 40 40 38 38 37 37 37 37 37 36 36 36 37 37 36 34 34 34 34 36 37 37 38 38 39 40 39 36 33 34 34 37 39 40 41 41 40 38 37 38 38 36 35 35 36 38
46 47 47 48 47 47 47 46 46 45 45 45 44 43 46 44 44 41 44 42 42 42 43 44 44 44 44 44 43 42 40 39 38 37 37 38 38 38 36 36 36 36 35 34 33 34 38 40 39 40 40 40 40 37 34 34 33 33 34 36 38 39 39 39 40 40 41 40 39 37 36 38 40 38
47 47 47 47 48 47 47 46 46 46 45 45 44 45 44 43 45 44 45 44 44 44 44 45 45 45 45 45 45 44 43 41 41 40 40 39 38 37 36 36 35 35 35 35 35 35 38 39 40 39 39 39 38 38 34 34 34 34 34 34 35 38 39 38 39 38 38 37 38 39 42 41 38 35
47 47 48 48 48 47 47 47 46 46 46 42 43 44 44 44 44 44 44 44 44 43 44 45 45 45 44 46 46 45 45 45 44 43 42 41 40 40 39 38 37 36 36 36 35 36 38 39 39 39 37 36 38 37 35 35 34 34 34 34 35 36 38 40 41 40 40 38 36 37 37 38 40 41
47 48 48 48 48 47 47 47 46 46 45 42 43 43 43 44 43 44 43 43 43 42 43 44 44 45 45 46 47 45 46 43 44 45 45 45 45 43 41 40 39 38 37 37 37 36 37 38 39 39 37 36 37 36 36 36 35 35 35 35 34 37 39 39 39 38 39 39 37 36 37 39 39 38
MSLP
1021.55 1021.31 1021.15 1020.91 1020.51 1020.07 1019.75 1019.35 1018.99 1018.55 1018.11 1017.67 1017.31 1016.91 1016.63 1016.11 1015.75 1015.07 1014.47 1013.67 1013.47 1012.59 1012.95 1013.47 1013.03 1012.75 1012.55 1012.51 1012.39 1012.55 1012.63 1012.43 1012.63 1012.91 1013.31 1013.43 1013.43 1013.75 1014.31 1014.63 1014.87 1015.07 1015.47 1015.79 1016.07 1016.35 1016.55 1016.71 1016.87 1017.19 1017.51 1017.87 1018.15 1018.43 1018.75 1019.03 1019.31 1019.67 1019.87 1020.07 1020.39 1020.75 1020.99 1021.19 1021.51 1021.79 1021.95 1022.11 1022.27 1022.47 1022.67 1022.91 1023.15 1023.35
1021.59 1021.35 1021.11 1020.79 1020.43 1020.11 1019.83 1019.55 1019.15 1018.71 1018.27 1017.95 1017.55 1017.19 1016.63 1016.15 1015.83 1015.03 1014.55 1013.51 1012.83 1012.63 1012.47 1012.75 1012.79 1012.51 1012.55 1012.35 1012.31 1012.31 1012.31 1012.11 1012.35 1012.35 1012.63 1012.83 1012.79 1013.07 1013.63 1014.07 1014.47 1014.71 1014.99 1015.31 1015.67 1015.95 1016.15 1016.31 1016.47 1016.71 1017.07 1017.43 1017.79 1018.11 1018.47 1018.79 1019.11 1019.47 1019.63 1019.79 1020.11 1020.51 1020.83 1021.03 1021.31 1021.59 1021.79 1021.95 1022.11 1022.43 1022.63 1022.83 1022.99 1023.19
1021.75 1021.39 1021.15 1020.83 1020.47 1020.07 1019.79 1019.51 1019.11 1018.79 1018.43 1017.99 1017.59 1017.15 1016.71 1016.15 1015.67 1015.19 1014.51 1013.91 1012.27 1012.31 1012.43 1012.23 1012.19 1012.39 1012.35 1012.27 1012.23 1012.11 1012.07 1011.99 1011.99 1011.99 1012.07 1012.15 1012.23 1012.67 1013.07 1013.47 1013.87 1014.23 1014.51 1014.83 1015.19 1015.47 1015.75 1015.95 1016.07 1016.31 1016.59 1016.95 1017.35 1017.75 1018.11 1018.43 1018.83 1019.19 1019.35 1019.59 1019.83 1020.19 1020.59 1020.87 1021.07 1021.39 1021.59 1021.71 1021.95 1022.23 1022.55 1022.75 1022.95 1023.11
1021.83 1021.47 1021.15 1020.83 1020.47 1020.11 1019.79 1019.47 1019.15 1018.83 1018.39 1017.95 1017.51 1017.23 1016.87 1016.47 1016.11 1015.67 1015.07 1014.43 1013.11 1012.11 1012.11 1011.91 1011.99 1011.87 1011.91 1011.95 1012.15 1012.03 1011.87 1011.79 1011.83 1011.87 1011.67 1011.67 1011.95 1012.35 1012.47 1012.95 1013.23 1013.63 1013.95 1014.31 1014.63 1014.87 1015.15 1015.47 1015.63 1015.83 1016.15 1016.47 1016.87 1017.31 1017.71 1018.03 1018.39 1018.75 1019.07 1019.39 1019.63 1019.95 1020.35 1020.67 1020.87 1021.15 1021.39 1021.51 1021.75 1021.99 1022.35 1022.63 1022.83 1023.03
1021.91 1021.63 1021.31 1020.95 1020.67 1020.39 1020.07 1019.67 1019.27 1018.83 1018.43 1018.11 1017.99 1017.75 1017.47 1017.15 1016.79 1016.55 1015.99 1015.35 1014.35 1012.83 1012.11 1011.87 1011.67 1011.47 1011.59 1011.75 1011.67 1011.79 1011.63 1011.63 1011.59 1011.55 1011.35 1011.35 1011.63 1011.79 1011.87 1012.15 1012.75 1012.99 1013.35 1013.67 1013.99 1014.31 1014.63 1014.91 1015.11 1015.31 1015.67 1015.99 1016.35 1016.79 1017.27 1017.63 1017.99 1018.35 1018.75 1019.11 1019.43 1019.75 1020.11 1020.39 1020.63 1020.87 1021.15 1021.35 1021.59 1021.75 1022.07 1022.43 1022.71 1022.91
1022.03 1021.79 1021.47 1021.11 1020.87 1020.67 1020.47 1020.07 1019.59 1019.15 1018.83 1018.59 1018.27 1017.95 1017.75 1017.43 1017.11 1016.79 1016.55 1015.95 1015.39 1014.11 1013.11 1012.39 1011.51 1011.35 1011.31 1011.51 1011.23 1011.39 1011.39 1011.23 1011.11 1011.15 1011.19 1011.07 1011.11 1011.23 1011.35 1011.71 1012.07 1012.63 1012.87 1013.07 1013.35 1013.67 1014.03 1014.35 1014.59 1014.79 1015.19 1015.51 1015.87 1016.27 1016.79 1017.19 1017.59 1017.95 1018.35 1018.79 1019.11 1019.43 1019.83 1020.07 1020.35 1020.59 1020.91 1021.15 1021.43 1021.59 1021.83 1022.27 1022.51 1022.71
1022.15 1021.91 1021.67 1021.35 1021.11 1020.87 1020.63 1020.19 1019.79 1019.39 1019.15 1018.91 1018.67 1018.31 1017.99 1017.75 1017.39 1017.11 1016.95 1016.67 1015.95 1015.03 1013.83 1013.23 1012.47 1011.51 1011.07 1011.15 1010.95 1010.79 1010.75 1010.67 1010.63 1010.83 1010.91 1010.95 1010.99 1010.87 1010.87 1010.99 1011.07 1011.55 1012.11 1012.51 1012.75 1013.03 1013.39 1013.75 1014.11 1014.35 1014.63 1015.03 1015.39 1015.75 1016.23 1016.75 1017.19 1017.51 1017.95 1018.39 1018.79 1019.07 1019.51 1019.75 1020.03 1020.31 1020.59 1020.87 1021.19 1021.43 1021.67 1022.07 1022.39 1022.55
1022.27 1022.03 1021.79 1021.55 1021.35 1021.11 1020.79 1020.35 1019.95 1019.67 1019.47 1019.19 1018.83 1018.47 1018.11 1017.83 1017.51 1017.23 1016.99 1016.75 1016.47 1015.31 1014.47 1013.07 1012.83 1011.91 1011.23 1010.63 1010.47 1010.39 1010.39 1010.43 1010.43 1010.43 1010.47 1010.47 1010.47 1010.47 1010.55 1010.39 1010.23 1010.43 1011.19 1011.67 1012.11 1012.43 1012.79 1013.15 1013.55 1013.83 1014.11 1014.47 1014.91 1015.31 1015.71 1016.23 1016.79 1017.19 1017.51 1017.99 1018.39 1018.75 1019.11 1019.43 1019.75 1020.03 1020.31 1020.59 1020.87 1021.19 1021.47 1021.87 1022.19 1022.39
1022.43 1022.19 1021.99 1021.75 1021.43 1021.23 1020.95 1020.51 1020.23 1019.99 1019.83 1019.47 1019.11 1018.83 1018.47 1018.15 1017.79 1017.43 1017.15 1016.75 1016.35 1015.79 1014.83 1013.67 1012.75 1012.19 1011.39 1010.47 1010.03 1010.03 1010.31 1010.23 1010.19 1010.07 1009.99 1010.03 1010.07 1010.03 1009.95 1010.03 1009.91 1010.07 1010.63 1011.11 1011.47 1011.75 1012.07 1012.47 1012.87 1013.27 1013.59 1013.95 1014.39 1014.83 1015.23 1015.71 1016.31 1016.79 1017.19 1017.55 1017.99 1018.39 1018.75 1019.07 1019.47 1019.83 1020.11 1020.35 1020.59 1020.87 1021.23 1021.59 1021.87 1022.15
1022.59 1022.35 1022.03 1021.83 1021.63 1021.39 1021.11 1020.83 1020.59 1020.31 1020.03 1019.71 1019.43 1019.07 1018.75 1018.43 1018.11 1017.67 1017.11 1016.55 1016.11 1015.79 1014.99 1014.15 1012.99 1012.11 1011.59 1010.71 1010.07 1009.63 1009.63 1009.79 1009.91 1009.83 1009.67 1009.59 1009.51 1009.67 1009.87 1009.83 1009.75 1009.87 1010.51 1010.83 1010.99 1011.07 1011.43 1011.95 1012.31 1012.71 1013.07 1013.43 1013.87 1014.31 1014.79 1015.23 1015.75 1016.35 1016.79 1017.11 1017.55 1017.95 1018.35 1018.71 1019.11 1019.55 1019.87 1020.15 1020.39 1020.59 1020.95 1021.31 1021.63 1021.83
1022.63 1022.43 1022.07 1021.87 1021.67 1021.43 1021.23 1021.07 1020.87 1020.59 1020.35 1020.03 1019.75 1019.35 1018.95 1018.55 1018.23 1017.79 1017.15 1016.59 1016.07 1015.43 1014.79 1013.83 1013.11 1012.27 1011.35 1010.99 1010.27 1009.35 1009.03 1008.95 1009.07 1009.27 1009.51 1009.47 1009.07 1009.11 1009.31 1009.63 1009.63 1009.79 1009.91 1010.27 1010.55 1010.75 1010.99 1011.19 1011.71 1012.11 1012.51 1012.91 1013.27 1013.79 1014.27 1014.71 1015.15 1015.71 1016.23 1016.67 1017.07 1017.51 1017.95 1018.35 1018.71 1019.15 1019.51 1019.87 1020.15 1020.39 1020.63 1021.03 1021.35 1021.55
1022.71 1022.43 1022.19 1021.91 1021.67 1021.51 1021.35 1021.27 1021.07 1020.79 1020.47 1020.19 1019.91 1019.51 1019.15 1018.71 1018.35 1017.87 1017.27 1016.67 1015.95 1015.31 1014.63 1013.95 1012.99 1012.07 1011.39 1010.55 1009.87 1009.15 1008.87 1008.79 1008.67 1008.67 1008.79 1008.83 1008.71 1008.71 1008.75 1008.87 1009.03 1009.11 1009.27 1009.71 1010.43 1010.79 1011.07 1011.11 1011.15 1011.51 1012.15 1012.47 1012.75 1013.11 1013.63 1014.15 1014.55 1015.07 1015.63 1016.11 1016.59 1017.07 1017.55 1017.95 1018.31 1018.71 1019.15 1019.51 1019.95 1020.23 1020.43 1020.75 1021.07 1021.27
1022.67 1022.43 1022.27 1022.07 1021.91 1021.79 1021.63 1021.47 1021.23 1020.99 1020.83 1020.47 1020.07 1019.55 1019.27 1018.91 1018.51 1017.95 1017.31 1016.71 1016.11 1015.27 1014.55 1013.67 1012.83 1011.99 1011.19 1010.47 1009.95 1009.31 1008.83 1008.55 1008.23 1007.99 1008.23 1008.15 1008.03 1008.15 1008.43 1008.19 1008.11 1008.23 1008.79 1009.27 1009.67 1010.11 1010.63 1010.99 1011.11 1011.39 1011.75 1012.07 1012.63 1012.95 1013.27 1013.75 1014.19 1014.51 1015.03 1015.59 1016.15 1016.63 1017.07 1017.51 1017.95 1018.35 1018.75 1019.15 1019.63 1020.03 1020.27 1020.47 1020.83 1021.07
1022.71 1022.59 1022.39 1022.23 1022.15 1021.99 1021.67 1021.35 1021.07 1020.91 1020.79 1020.63 1020.43 1019.87 1019.39 1018.95 1018.55 1018.11 1017.47 1016.71 1015.95 1015.27 1014.55 1013.75 1012.91 1012.11 1011.23 1010.55 1009.99 1009.51 1008.71 1008.11 1007.75 1007.67 1007.67 1007.71 1007.51 1007.71 1007.83 1007.87 1007.47 1007.39 1008.11 1008.67 1008.99 1009.23 1009.63 1010.15 1010.47 1010.83 1011.11 1011.35 1012.15 1012.43 1012.91 1012.83 1013.31 1013.79 1014.39 1015.03 1015.59 1016.11 1016.59 1017.11 1017.55 1017.95 1018.35 1018.79 1019.19 1019.71 1020.03 1020.27 1020.59 1020.87
1022.91 1022.67 1022.51 1022.27 1021.99 1021.75 1021.51 1021.19 1021.03 1020.83 1020.59 1020.35 1019.99 1019.51 1019.15 1018.83 1018.55 1017.87 1017.31 1016.63 1015.99 1015.27 1014.51 1013.75 1013.11 1012.35 1011.43 1010.47 1009.95 1009.31 1008.67 1007.99 1007.55 1007.11 1007.07 1007.07 1007.15 1007.23 1007.27 1007.03 1006.87 1006.99 1007.15 1007.83 1008.43 1008.83 1009.19 1009.59 1009.75 1010.07 1010.35 1010.67 1011.31 1011.63 1011.75 1012.07 1012.67 1013.31 1013.91 1014.47 1015.03 1015.51 1016.07 1016.59 1017.11 1017.55 1017.95 1018.35 1018.79 1019.27 1019.71 1020.03 1020.35 1020.67
1023.27 1023.03 1022.75 1022.43 1022.07 1021.79 1021.55 1021.15 1020.83 1020.63 1020.39 1020.03 1019.59 1019.07 1018.47 1017.91 1017.51 1017.39 1017.07 1016.35 1015.67 1015.23 1014.43 1013.67 1013.11 1012.59 1011.55 1010.71 1009.87 1009.11 1008.63 1007.87 1007.27 1006.75 1006.51 1006.39 1006.43 1006.47 1006.59 1006.27 1006.31 1005.95 1006.83 1007.63 1007.99 1008.23 1008.59 1009.03 1009.47 1009.75 1009.87 1010.07 1010.43 1010.67 1010.87 1011.55 1012.15 1012.79 1013.35 1013.83 1014.39 1014.91 1015.47 1016.03 1016.55 1017.03 1017.47 1017.87 1018.31 1018.79 1019.31 1019.71 1020.11 1020.51
1023.55 1023.31 1023.03 1022.67 1022.31 1021.91 1021.51 1021.11 1020.83 1020.51 1019.99 1019.55 1019.15 1018.59 1017.83 1017.03 1016.43 1016.11 1016.03 1015.87 1015.43 1014.67 1014.23 1013.67 1012.63 1012.39 1011.63 1010.75 1009.75 1009.19 1008.55 1007.99 1007.31 1006.55 1006.27 1006.07 1005.91 1005.63 1005.51 1005.31 1005.31 1006.03 1005.95 1006.95 1007.51 1007.71 1008.15 1008.47 1008.95 1009.43 1009.31 1009.19 1009.47 1010.07 1010.59 1011.11 1011.55 1012.07 1012.63 1013.19 1013.83 1014.39 1014.95 1015.55 1016.07 1016.55 1017.03 1017.43 1017.87 1018.39 1018.91 1019.35 1019.83 1020.23
1023.67 1023.51 1023.31 1022.95 1022.43 1021.99 1021.59 1021.19 1020.91 1020.59 1020.03 1019.31 1018.63 1017.91 1017.23 1016.51 1015.79 1015.27 1014.91 1014.75 1014.47 1014.19 1013.67 1013.15 1012.39 1011.51 1011.35 1010.43 1009.67 1009.07 1008.87 1008.43 1007.59 1006.75 1005.83 1005.59 1005.47 1005.31 1004.99 1004.71 1005.03 1005.59 1005.99 1005.75 1006.43 1007.47 1007.79 1007.95 1008.27 1008.47 1008.47 1008.91 1009.19 1009.31 1009.79 1010.51 1010.99 1011.59 1012.07 1012.63 1013.27 1013.91 1014.51 1015.11 1015.63 1016.15 1016.67 1017.11 1017.51 1018.03 1018.55 1019.03 1019.51 1019.95
1023.79 1023.63 1023.39 1023.07 1022.63 1022.19 1021.75 1021.27 1021.27 1020.79 1020.03 1019.31 1018.47 1017.71 1017.03 1016.35 1015.67 1014.99 1014.35 1013.91 1013.59 1013.27 1012.83 1012.31 1011.63 1010.91 1010.31 1009.75 1009.23 1008.59 1008.31 1007.83 1007.23 1006.79 1006.11 1005.39 1004.87 1004.55 1004.47 1004.71 1004.71 1005.11 1005.19 1005.47 1005.79 1005.87 1006.47 1007.59 1007.75 1007.47 1007.75 1008.31 1008.63 1008.83 1009.27 1009.91 1010.51 1010.99 1011.55 1012.07 1012.71 1013.39 1014.07 1014.71 1015.27 1015.79 1016.31 1016.79 1017.27 1017.67 1018.23 1018.75 1019.27 1019.75
1023.79 1023.63 1023.43 1023.07 1022.67 1022.27 1021.75 1021.39 1021.31 1020.91 1020.19 1019.19 1018.35 1017.59 1016.87 1016.15 1015.39 1014.59 1014.03 1013.71 1013.35 1012.91 1012.31 1011.67 1011.03 1010.27 1009.55 1009.11 1008.75 1008.15 1007.83 1007.51 1007.15 1006.79 1006.23 1005.43 1004.71 1004.51 1004.39 1004.27 1004.47 1004.67 1004.91 1005.03 1005.43 1005.75 1006.11 1006.59 1007.15 1007.39 1007.59 1007.87 1008.15 1008.31 1008.63 1009.35 1009.95 1010.51 1011.03 1011.63 1012.19 1012.87 1013.63 1014.31 1014.91 1015.43 1015.99 1016.55 1017.07 1017.55 1018.07 1018.59 1019.11 1019.67
1023.79 1023.63 1023.43 1023.11 1022.67 1022.19 1021.71 1021.51 1021.23 1020.67 1020.07 1019.03 1018.35 1017.67 1016.87 1016.11 1015.27 1014.35 1013.39 1012.83 1012.51 1012.03 1011.47 1010.83 1010.19 1009.51 1008.79 1008.27 1008.03 1007.63 1007.19 1007.31 1007.23 1007.47 1007.39 1006.35 1004.67 1004.03 1003.79 1003.63 1003.87 1003.87 1004.43 1004.75 1004.75 1005.15 1005.75 1006.23 1006.51 1006.99 1007.27 1007.47 1007.79 1008.07 1008.23 1008.75 1009.39 1009.95 1010.47 1011.03 1011.67 1012.35 1013.15 1013.83 1014.51 1015.07 1015.63 1016.23 1016.83 1017.43 1017.99 1018.59 1019.11 1019.75
1023.63 1023.43 1023.39 1023.11 1022.63 1022.23 1021.79 1021.55 1021.11 1020.55 1019.87 1018.91 1018.31 1017.63 1016.95 1016.07 1015.15 1014.11 1013.23 1012.39 1011.43 1010.87 1010.27 1009.47 1008.67 1007.91 1007.23 1006.63 1006.47 1006.27 1005.91 1005.95 1006.55 1006.95 1006.31 1004.99 1004.47 1003.31 1003.03 1003.07 1003.19 1003.43 1003.91 1003.71 1003.95 1005.07 1004.79 1005.71 1006.27 1006.67 1007.23 1007.59 1007.63 1007.59 1007.91 1008.39 1009.07 1009.87 1010.59 1011.07 1011.43 1012.03 1012.71 1013.47 1014.07 1014.71 1015.35 1015.95 1016.63 1017.23 1017.87 1018.43 1019.07 1019.55
1023.59 1023.39 1023.11 1022.87 1022.63 1022.43 1022.03 1021.55 1020.95 1020.39 1019.83 1019.03 1018.35 1017.71 1017.11 1016.39 1015.47 1014.47 1013.63 1012.67 1011.27 1009.95 1008.91 1007.99 1007.43 1006.47 1005.63 1004.87 1004.51 1004.43 1004.31 1004.39 1004.87 1005.07 1004.83 1004.59 1004.11 1002.63 1002.39 1002.55 1002.95 1003.51 1003.31 1003.43 1003.87 1004.27 1004.43 1005.23 1005.63 1006.27 1007.59 1007.55 1008.03 1008.23 1007.91 1008.15 1008.67 1009.27 1009.99 1010.99 1011.67 1011.99 1012.59 1013.27 1013.83 1014.47 1015.07 1015.79 1016.43 1017.07 1017.63 1018.19 1018.51 1018.83
1023.59 1023.47 1022.99 1022.55 1022.43 1022.31 1021.95 1021.39 1020.83 1020.23 1019.79 1019.23 1018.35 1017.71 1017.35 1016.71 1015.71 1014.63 1013.67 1012.59 1011.63 1010.47 1009.47 1008.15 1006.87 1005.87 1004.75 1003.67 1003.15 1003.03 1002.79 1002.71 1002.91 1003.19 1003.47 1003.35 1002.91 1002.19 1001.75 1001.79 1001.95 1001.91 1001.91 1002.71 1003.19 1003.39 1003.91 1004.43 1005.15 1005.51 1005.39 1006.23 1007.15 1008.03 1008.31 1008.31 1008.55 1008.87 1009.43 1010.39 1011.27 1012.19 1012.71 1013.31 1013.95 1014.39 1014.99 1015.63 1016.27 1016.87 1017.39 1017.79 1017.95 1018.35
1023.79 1023.47 1023.11 1022.75 1022.55 1022.35 1021.91 1021.31 1020.71 1020.15 1019.55 1019.07 1018.35 1017.79 1017.51 1017.03 1016.19 1014.95 1013.67 1012.31 1011.43 1010.47 1009.31 1008.03 1006.79 1005.67 1004.63 1003.63 1002.63 1002.15 1001.79 1001.35 1001.35 1001.71 1001.95 1001.95 1001.91 1001.75 1001.27 1001.23 1001.27 1001.39 1001.47 1002.07 1002.55 1003.03 1003.83 1004.07 1004.71 1005.55 1005.87 1006.07 1006.71 1007.75 1008.31 1008.31 1008.55 1008.79 1009.03 1009.59 1010.63 1011.59 1012.23 1012.99 1013.67 1014.51 1014.95 1015.59 1016.23 1016.79 1017.23 1017.51 1017.79 1017.95
1024.07 1023.75 1023.39 1022.99 1022.75 1022.43 1021.87 1021.19 1020.59 1019.99 1019.43 1018.79 1018.15 1017.71 1017.31 1016.51 1015.63 1014.71 1013.71 1012.59 1011.39 1010.35 1009.35 1008.19 1006.99 1005.87 1004.83 1003.79 1002.83 1001.87 1000.95 1000.43 1000.35 1000.47 1000.71 1000.99 1001.11 1001.07 1000.87 1000.63 1000.71 1000.99 1001.07 1001.95 1002.43 1002.71 1003.59 1004.19 1003.79 1004.71 1005.67 1006.23 1007.35 1007.35 1008.23 1008.75 1008.87 1008.95 1009.23 1009.63 1010.11 1011.15 1011.83 1012.47 1013.39 1014.35 1015.07 1015.75 1016.43 1016.83 1017.19 1017.51 1017.83 1018.15
1024.35 1024.03 1023.67 1023.23 1022.95 1022.51 1021.83 1021.11 1020.43 1019.79 1019.27 1018.55 1018.11 1017.63 1016.87 1016.19 1015.35 1014.47 1013.63 1012.59 1011.55 1010.63 1009.67 1008.55 1007.31 1006.07 1004.95 1004.07 1003.23 1002.43 1001.63 1001.03 1000.67 1000.43 1000.35 1000.35 1000.51 1000.67 1000.75 1000.67 1000.35 1000.35 1000.55 1001.47 1001.87 1002.03 1002.51 1002.91 1003.51 1003.83 1004.83 1005.55 1006.67 1007.83 1007.91 1008.39 1009.03 1009.31 1009.47 1009.95 1010.35 1010.95 1011.79 1012.35 1013.35 1014.31 1014.99 1015.75 1016.39 1016.99 1017.47 1017.79 1018.11 1018.51
1024.59 1024.27 1023.91 1023.55 1023.15 1022.47 1021.75 1021.03 1020.31 1019.59 1019.07 1018.67 1018.11 1017.39 1016.75 1016.03 1015.23 1014.55 1013.59 1012.47 1011.75 1010.79 1009.63 1008.63 1007.67 1006.63 1005.43 1004.39 1003.59 1002.91 1002.11 1001.39 1000.79 1000.67 1000.63 1000.51 1000.31 1000.35 1000.31 1000.27 1000.39 1000.67 1000.87 1001.23 1001.59 1001.83 1002.15 1002.51 1002.95 1002.95 1003.51 1004.75 1005.95 1006.83 1007.87 1008.79 1008.87 1008.87 1009.51 1010.11 1010.39 1010.87 1011.55 1012.11 1013.23 1014.23 1014.91 1015.59 1016.35 1017.07 1017.47 1018.03 1018.35 1018.63
1024.79 1024.63 1024.27 1023.63 1022.95 1022.31 1021.63 1020.87 1020.03 1019.27 1018.91 1018.59 1018.03 1017.43 1016.75 1015.99 1015.27 1014.55 1013.75 1013.07 1012.07 1010.95 1010.07 1009.27 1008.31 1007.27 1006.19 1005.11 1004.27 1003.43 1002.55 1001.71 1000.95 1000.63 1000.59 1000.55 1000.55 1000.55 1000.59 1000.67 1000.71 1000.79 1000.79 1001.03 1001.27 1001.55 1001.99 1002.47 1002.71 1003.03 1003.79 1004.35 1005.03 1005.83 1006.23 1007.35 1008.43 1009.43 1009.55 1010.11 1011.07 1011.23 1011.67 1012.27 1013.07 1013.91 1014.63 1015.39 1016.11 1016.83 1017.31 1017.67 1018.19 1018.47
1024.71 1024.27 1023.83 1023.27 1022.63 1021.91 1021.31 1020.59 1019.95 1019.43 1018.95 1018.47 1017.83 1017.27 1016.75 1016.23 1015.63 1014.95 1014.19 1013.31 1012.47 1011.63 1010.71 1009.71 1008.75 1007.91 1006.83 1005.47 1004.59 1003.87 1002.91 1002.15 1001.63 1001.23 1001.03 1000.87 1000.79 1000.71 1000.75 1000.87 1001.27 1001.31 1001.23 1001.27 1001.59 1002.07 1002.55 1002.87 1003.23 1003.43 1003.71 1004.23 1004.47 1005.55 1006.67 1007.87 1009.11 1009.39 1009.79 1009.91 1010.67 1011.55 1011.87 1012.31 1013.11 1013.55 1014.27 1015.39 1016.19 1016.95 1017.43 1017.63 1017.87 1018.19
1024.31 1023.99 1023.55 1023.11 1022.71 1022.11 1021.51 1020.87 1020.19 1019.59 1018.79 1018.03 1017.67 1017.43 1017.07 1016.59 1015.99 1015.35 1014.67 1014.03 1013.23 1012.35 1011.31 1010.27 1009.31 1008.35 1007.51 1006.35 1005.15 1004.23 1003.51 1002.91 1002.27 1001.71 1001.51 1001.39 1001.47 1001.27 1001.35 1001.51 1001.95 1002.03 1002.07 1001.95 1002.07 1002.35 1002.63 1002.95 1003.35 1003.87 1004.59 1004.95 1005.35 1005.83 1006.27 1006.67 1008.27 1009.67 1010.23 1010.15 1009.63 1010.39 1012.03 1012.51 1013.15 1013.59 1014.03 1015.23 1016.39 1017.23 1017.83 1018.11 1018.47 1018.71
1024.43 1023.87 1023.39 1022.83 1022.23 1021.63 1020.99 1020.35 1019.75 1019.35 1018.95 1018.55 1018.15 1017.79 1017.47 1016.99 1016.35 1015.75 1015.07 1014.15 1013.39 1012.63 1011.87 1010.91 1009.91 1009.07 1008.39 1007.35 1006.11 1005.03 1004.31 1003.75 1002.91 1002.27 1002.03 1001.95 1002.03 1001.99 1001.79 1002.03 1002.67 1002.75 1002.75 1002.79 1002.83 1002.95 1003.19 1003.67 1004.03 1004.47 1004.91 1005.31 1005.71 1006.59 1007.27 1007.51 1007.91 1009.03 1010.23 1010.67 1010.99 1011.63 1011.71 1011.95 1013.15 1013.95 1013.95 1015.07 1016.47 1017.51 1018.07 1018.31 1018.67 1019.15
1024.31 1023.87 1023.31 1022.75 1022.27 1021.75 1021.35 1020.87 1020.31 1019.79 1019.31 1018.91 1018.43 1018.07 1017.79 1017.27 1016.63 1015.95 1015.15 1014.55 1013.95 1013.27 1012.27 1011.35 1010.67 1009.87 1008.79 1007.79 1006.87 1005.95 1005.15 1004.51 1003.79 1003.23 1002.79 1002.55 1002.43 1002.51 1002.51 1003.03 1003.47 1003.47 1003.63 1003.91 1003.91 1004.03 1004.07 1004.43 1004.83 1005.27 1005.79 1006.27 1006.75 1006.87 1007.15 1008.67 1009.63 1009.39 1009.63 1010.87 1011.31 1011.87 1012.59 1012.87 1013.43 1013.75 1014.15 1015.11 1016.55 1017.59 1018.47 1018.91 1019.19 1019.51
1024.51 1024.15 1023.67 1023.23 1022.83 1022.39 1021.83 1021.51 1020.99 1020.47 1019.95 1019.51 1019.03 1018.43 1018.07 1017.63 1017.11 1016.63 1015.95 1015.43 1014.79 1013.95 1013.15 1012.35 1011.43 1010.51 1009.59 1008.71 1008.03 1007.27 1006.47 1005.67 1004.99 1004.55 1003.95 1003.55 1003.35 1003.39 1003.63 1003.87 1004.27 1004.51 1004.59 1004.79 1004.87 1004.95 1004.99 1005.15 1005.47 1006.03 1006.47 1007.11 1007.71 1008.27 1008.47 1008.39 1009.47 1010.51 1010.83 1010.83 1011.03 1012.23 1013.11 1013.51 1013.67 1014.03 1014.55 1015.23 1016.15 1017.55 1018.51 1019.31 1019.79 1020.11
1024.67 1024.35 1023.99 1023.63 1023.31 1022.99 1022.47 1022.11 1021.63 1021.07 1020.43 1019.95 1019.59 1019.07 1018.51 1017.99 1017.59 1017.11 1016.55 1016.03 1015.35 1014.51 1013.75 1012.83 1012.03 1011.31 1010.59 1009.99 1009.35 1008.67 1007.91 1007.11 1006.35 1005.67 1005.15 1004.79 1004.67 1004.75 1004.87 1005.03 1005.31 1005.39 1005.43 1005.55 1005.75 1005.91 1005.71 1005.79 1005.91 1006.55 1007.19 1007.59 1008.19 1009.15 1009.47 1009.91 1009.91 1010.63 1011.43 1011.79 1011.75 1012.27 1013.43 1013.71 1013.99 1014.75 1015.23 1015.95 1016.15 1017.47 1018.87 1019.59 1020.23 1020.67
1024.87 1024.63 1024.35 1023.99 1023.67 1023.35 1022.95 1022.59 1022.15 1021.55 1020.91 1020.31 1019.91 1019.47 1018.95 1018.31 1017.87 1017.55 1017.07 1016.51 1015.83 1015.15 1014.35 1013.51 1012.79 1012.11 1011.59 1011.07 1010.43 1009.75 1009.03 1008.31 1007.63 1007.03 1006.59 1006.31 1006.15 1005.99 1005.99 1006.23 1006.23 1006.35 1006.35 1006.47 1006.55 1006.59 1006.55 1006.51 1006.27 1006.91 1007.99 1008.87 1009.27 1010.39 1011.47 1011.35 1011.03 1010.79 1010.91 1012.27 1012.55 1012.91 1013.67 1014.27 1014.71 1015.19 1015.79 1016.59 1017.15 1017.63 1018.75 1019.75 1020.43 1020.99
1025.11 1024.91 1024.59 1024.31 1023.95 1023.59 1023.35 1022.91 1022.55 1022.03 1021.35 1020.75 1020.19 1019.71 1019.35 1018.83 1018.23 1017.79 1017.31 1016.75 1016.03 1015.35 1014.87 1014.23 1013.67 1013.07 1012.39 1011.75 1011.15 1010.71 1010.03 1009.35 1008.95 1008.47 1007.95 1007.63 1007.47 1007.31 1007.27 1007.47 1007.59 1007.55 1007.47 1007.55 1007.47 1007.51 1007.43 1007.63 1007.47 1007.43 1008.47 1009.23 1010.11 1011.51 1012.67 1012.99 1012.63 1012.47 1011.39 1011.95 1013.55 1013.95 1014.47 1014.99 1015.47 1016.23 1016.87 1017.23 1018.07 1018.47 1019.03 1019.75 1020.59 1021.11
1025.39 1025.11 1024.95 1024.59 1024.31 1023.91 1023.63 1023.19 1022.79 1022.35 1021.71 1021.11 1020.63 1020.07 1019.51 1018.95 1018.47 1017.91 1017.35 1016.95 1016.63 1015.91 1015.19 1014.71 1014.23 1013.71 1013.23 1012.59 1012.03 1011.63 1011.19 1010.63 1010.11 1009.71 1009.51 1009.19 1008.95 1008.91 1008.87 1008.83 1008.87 1008.83 1008.83 1008.95 1008.91 1008.95 1008.79 1008.75 1008.87 1008.79 1008.59 1009.35 1010.39 1011.11 1012.47 1013.51 1013.79 1014.07 1013.83 1012.87 1013.75 1015.07 1015.19 1015.39 1016.11 1016.87 1017.71 1018.19 1018.55 1019.15 1019.51 1020.11 1020.67 1021.19
1025.59 1025.31 1025.07 1024.79 1024.51 1024.19 1023.87 1023.51 1023.11 1022.67 1022.03 1021.47 1020.99 1020.47 1019.91 1019.27 1018.75 1018.31 1017.91 1017.63 1017.11 1016.51 1015.91 1015.39 1014.83 1014.39 1013.99 1013.51 1012.91 1012.51 1012.23 1011.75 1011.27 1011.03 1010.67 1010.43 1010.27 1010.07 1009.91 1009.79 1009.83 1009.87 1009.83 1010.11 1010.19 1010.27 1010.23 1010.39 1010.47 1010.55 1010.47 1010.23 1010.75 1011.83 1012.07 1013.03 1014.51 1015.07 1015.15 1014.99 1014.67 1015.11 1016.03 1016.23 1016.87 1017.59 1018.11 1018.75 1019.35 1019.83 1020.47 1020.87 1021.27 1021.67
1025.87 1025.51 1025.27 1024.99 1024.67 1024.39 1024.19 1023.79 1023.39 1022.91 1022.43 1021.95 1021.43 1020.99 1020.35 1019.79 1019.31 1018.91 1018.43 1018.07 1017.55 1016.99 1016.31 1015.91 1015.51 1014.91 1014.51 1014.23 1013.75 1013.15 1012.67 1012.67 1012.43 1012.15 1011.87 1011.63 1011.43 1011.19 1010.99 1010.87 1010.79 1010.83 1010.91 1011.11 1011.27 1011.51 1011.55 1011.79 1011.83 1011.83 1011.87 1012.03 1012.43 1012.75 1013.07 1013.79 1014.95 1015.51 1015.87 1016.19 1016.31 1016.27 1016.67 1016.83 1017.43 1017.87 1018.71 1019.23 1019.51 1019.95 1020.71 1021.15 1021.55 1021.95
1026.07 1025.67 1025.35 1025.15 1024.87 1024.63 1024.43 1024.11 1023.79 1023.35 1022.83 1022.35 1021.83 1021.51 1020.87 1020.23 1019.83 1019.51 1018.91 1018.47 1018.03 1017.47 1016.83 1016.39 1016.07 1015.59 1015.19 1014.71 1014.31 1013.95 1013.71 1013.55 1013.39 1013.15 1012.87 1012.59 1012.47 1012.35 1012.19 1011.83 1011.79 1011.83 1011.75 1012.15 1012.31 1012.55 1012.95 1013.19 1013.07 1012.83 1012.67 1012.95 1013.07 1012.91 1013.15 1014.15 1015.59 1016.51 1016.87 1017.27 1017.43 1017.47 1017.63 1017.67 1017.87 1018.19 1018.79 1019.43 1019.83 1020.31 1020.83 1021.31 1021.71 1022.11
1026.27 1025.91 1025.59 1025.35 1025.15 1024.87 1024.63 1024.39 1024.07 1023.75 1023.35 1022.79 1022.31 1021.87 1021.39 1020.87 1020.39 1020.03 1019.27 1018.83 1018.43 1017.99 1017.39 1016.95 1016.63 1016.23 1015.79 1015.35 1015.07 1014.75 1014.59 1014.47 1014.27 1014.11 1013.79 1013.55 1013.35 1013.27 1013.15 1012.95 1013.03 1013.07 1012.91 1013.19 1013.55 1013.79 1013.87 1013.75 1013.67 1013.55 1013.59 1013.59 1013.67 1013.59 1014.87 1015.63 1016.39 1017.15 1017.71 1018.07 1018.31 1018.43 1018.51 1018.67 1018.87 1019.11 1019.31 1019.55 1019.87 1020.55 1021.11 1021.51 1021.71 1022.19
1026.39 1026.11 1025.83 1025.59 1025.35 1025.11 1024.87 1024.67 1024.35 1024.07 1023.75 1023.35 1022.87 1022.39 1021.87 1021.35 1020.83 1020.31 1019.75 1019.39 1019.03 1018.55 1018.07 1017.51 1017.15 1016.87 1016.47 1016.03 1015.71 1015.39 1015.11 1014.91 1014.75 1014.55 1014.39 1014.35 1014.31 1014.31 1014.31 1014.35 1014.31 1014.23 1014.23 1014.35 1014.51 1014.55 1014.51 1014.43 1014.43 1014.51 1014.59 1014.63 1014.87 1014.63 1015.71 1016.63 1017.15 1017.67 1018.23 1018.67 1019.07 1019.23 1019.39 1019.51 1019.59 1019.79 1019.99 1020.19 1020.39 1020.51 1020.55 1020.91 1021.47 1022.27
1026.59 1026.31 1026.03 1025.79 1025.55 1025.31 1025.11 1024.91 1024.67 1024.39 1024.07 1023.79 1023.39 1022.87 1022.35 1021.87 1021.43 1021.03 1020.63 1020.19 1019.79 1019.35 1018.83 1018.31 1017.83 1017.39 1017.07 1016.63 1016.31 1015.99 1015.75 1015.55 1015.31 1015.15 1015.03 1014.99 1014.99 1014.95 1014.95 1015.03 1015.11 1015.15 1015.15 1015.23 1015.35 1015.39 1015.35 1015.35 1015.43 1015.35 1015.55 1016.11 1016.19 1016.11 1016.75 1017.15 1017.79 1018.31 1018.79 1019.23 1019.55 1019.75 1019.99 1020.15 1020.27 1020.43 1020.63 1020.95 1021.19 1021.23 1021.23 1021.35 1021.39 1021.43
1026.79 1026.55 1026.27 1025.99 1025.79 1025.59 1025.43 1025.15 1024.95 1024.67 1024.39 1024.15 1023.71 1023.35 1022.91 1022.47 1022.11 1021.63 1021.27 1020.95 1020.55 1020.11 1019.43 1018.99 1018.63 1018.11 1017.67 1017.19 1016.83 1016.59 1016.31 1016.15 1015.87 1015.71 1015.51 1015.31 1015.15 1015.19 1015.31 1015.39 1015.51 1015.75 1015.99 1016.11 1016.07 1016.27 1016.31 1016.35 1016.39 1016.31 1016.63 1017.15 1017.31 1017.39 1017.71 1017.95 1018.51 1018.91 1019.27 1019.59 1019.95 1020.23 1020.43 1020.67 1020.95 1021.31 1021.59 1021.87 1022.07 1021.99 1021.83 1021.87 1021.91 1022.11
Wind_Speed
11 11 12 11 11 10 10 10 10 10 10 9 10 10 11 11 12 12 10 9 12 11 9 8 7 11 10 9 8 9 12 15 13 10 12 14 12 17 21 20 20 20 21 21 22 20 20 19 21 20 20 19 19 19 17 16 14 14 16 16 16 13 12 15 16 17 18 21 20 17 17 17 16 15
10 11 12 12 11 11 12 12 12 10 10 10 9 10 10 10 13 13 13 11 9 12 6 8 7 6 9 8 8 8 10 15 13 15 14 14 13 16 21 21 20 20 21 21 21 21 21 21 21 21 21 20 20 19 18 17 16 14 16 19 18 14 11 15 16 16 17 18 17 17 17 17 16 15
10 12 12 12 11 12 13 12 11 11 10 10 10 8 9 10 10 12 13 13 6 5 11 7 7 7 8 8 8 8 9 12 13 16 15 16 17 15 17 21 21 21 21 21 21 21 21 21 21 22 23 22 21 20 19 19 17 15 20 18 19 17 13 15 18 17 18 18 17 17 16 16 13 13
11 12 12 12 12 12 12 12 11 11 11 11 10 10 10 11 12 11 10 12 13 6 8 6 5 10 9 8 10 10 9 8 11 14 16 16 14 12 11 19 22 22 21 22 22 22 22 21 22 23 23 23 22 21 20 20 18 19 19 18 18 17 15 17 19 20 20 19 16 18 15 13 13 15
11 11 12 12 12 12 12 11 11 11 12 12 11 10 9 8 9 10 10 12 14 12 6 8 8 8 8 7 8 11 11 11 10 13 16 16 14 14 14 11 20 22 23 22 23 22 22 22 21 24 24 24 23 22 22 21 21 21 20 18 18 17 16 18 20 20 19 17 16 19 17 14 14 15
10 11 13 13 13 12 12 12 12 11 11 12 12 12 12 11 11 9 8 9 12 14 12 11 9 8 9 10 9 11 11 10 10 11 13 14 15 14 13 9 11 21 21 23 23 23 23 22 23 24 23 23 23 23 22 22 22 22 20 19 19 19 18 19 18 19 19 16 16 18 18 16 15 16
12 13 12 13 13 11 13 12 12 12 12 12 12 13 11 12 12 11 9 9 12 14 13 11 13 10 8 9 10 11 11 10 9 9 10 11 11 10 14 15 13 20 24 24 24 24 23 23 23 23 24 23 23 24 24 23 22 22 21 20 20 20 19 19 18 18 19 16 17 18 18 18 15 16
11 12 13 13 14 14 13 13 12 12 13 12 12 13 12 12 13 11 11 11 9 10 12 12 11 12 11 9 11 9 9 10 10 10 10 11 12 14 15 16 15 18 25 25 25 24 24 24 23 23 24 24 24 24 24 23 23 22 22 22 21 21 20 19 18 18 19 17 18 19 19 18 19 18
12 12 13 13 14 14 14 13 13 13 16 14 13 13 12 12 12 12 12 13 11 11 12 13 11 10 12 11 8 8 9 10 10 11 12 12 12 13 11 13 14 14 24 24 25 24 25 25 24 24 24 25 25 24 24 24 23 23 22 23 22 21 20 20 18 18 19 17 17 19 18 17 18 18
12 12 13 13 13 14 14 14 13 14 16 14 14 15 14 13 13 14 14 13 14 12 12 11 13 10 11 12 10 9 10 10 10 11 11 12 11 11 11 11 9 7 7 10 15 21 21 24 25 25 25 25 25 25 24 24 24 23 23 23 23 22 21 21 20 19 18 16 16 18 19 17 17 18
11 12 13 13 13 14 14 14 14 14 16 14 16 15 16 16 17 15 14 14 14 13 13 13 12 11 11 10 12 10 11 12 12 11 10 11 11 9 12 11 10 10 9 11 18 15 16 21 21 23 25 26 26 26 25 25 26 25 24 23 23 22 22 21 21 20 19 17 15 16 18 18 18 18
12 13 13 13 13 14 14 13 13 15 15 15 15 15 15 16 17 16 15 14 13 13 13 12 13 12 10 11 11 11 10 10 12 12 12 13 11 12 12 12 13 12 13 11 10 14 15 15 22 24 24 26 26 27 26 27 26 26 25 24 23 23 22 22 21 21 20 19 15 15 17 18 18 18
14 14 13 13 13 15 17 18 15 15 15 14 15 16 16 17 16 16 14 14 13 13 12 13 12 12 12 10 10 11 10 10 11 11 12 13 11 10 11 12 12 12 11 9 11 14 12 12 12 8 12 16 23 22 25 22 26 26 25 24 23 22 22 22 21 21 21 21 19 16 16 18 18 17
14 14 13 13 17 17 18 18 16 15 15 18 17 17 17 17 16 15 15 15 14 13 14 13 13 14 13 11 10 11 12 11 9 10 11 13 13 11 12 10 12 13 11 11 9 11 12 14 13 14 14 14 17 16 16 16 20 24 26 25 24 24 23 22 21 21 21 21 21 18 17 17 18 17
14 14 14 13 15 16 17 16 16 14 16 18 20 22 22 20 17 16 16 15 15 14 14 13 13 13 16 16 12 12 12 12 14 14 11 11 12 13 11 14 8 10 14 12 8 7 10 12 15 14 15 16 15 14 16 22 25 25 26 25 25 24 23 23 22 22 21 21 21 20 18 17 17 17
13 14 14 14 13 13 17 17 16 18 20 20 21 22 22 22 20 17 16 16 16 15 15 15 15 14 15 16 14 13 11 13 12 14 13 13 14 13 11 12 12 8 12 10 11 12 8 11 11 12 14 15 16 19 21 26 24 25 26 26 25 25 24 24 23 23 22 22 21 20 19 18 17 17
13 13 13 14 14 14 22 18 18 20 21 22 22 22 22 21 20 18 16 18 18 17 17 17 19 15 15 17 16 14 14 13 15 13 11 11 11 13 15 14 12 9 16 11 12 14 10 9 10 11 14 14 13 16 19 25 25 27 27 27 26 24 24 24 23 23 22 22 22 21 19 19 18 17
13 14 14 15 15 16 17 17 20 21 21 21 20 18 18 18 21 21 19 17 18 17 16 17 18 18 16 17 17 19 17 16 14 13 13 12 12 13 14 12 8 6 13 17 11 9 10 13 9 11 12 11 13 14 20 25 26 27 27 27 26 25 24 24 23 23 22 21 22 21 20 19 18 17
13 13 14 15 16 17 17 17 22 23 22 21 18 19 19 19 19 19 19 17 16 15 15 16 18 20 20 20 21 20 17 19 16 14 16 15 14 13 12 7 9 7 11 11 11 16 10 9 13 15 13 13 13 14 19 26 26 27 27 27 26 25 24 23 23 22 22 21 20 21 20 19 18 17
13 13 15 16 16 18 18 22 25 23 21 21 20 19 20 19 18 17 17 19 18 18 18 18 19 20 22 23 21 21 19 18 16 13 15 16 17 14 11 12 9 11 12 13 12 9 8 11 11 11 10 11 12 12 12 23 28 26 27 27 26 25 24 24 23 22 22 21 20 20 19 19 17 16
13 14 16 16 17 19 19 23 24 23 23 20 20 19 19 18 19 19 19 19 21 20 22 25 27 29 30 31 31 31 32 25 22 15 15 17 14 12 11 11 9 11 11 10 12 10 7 9 12 10 10 10 10 10 12 13 24 27 27 27 26 25 24 24 23 22 22 21 20 19 18 17 16 16
13 15 20 19 19 20 21 24 23 23 22 20 20 19 19 21 21 21 19 18 18 22 22 23 25 27 28 30 30 31 31 30 22 16 18 17 13 14 12 11 10 9 11 13 13 10 10 10 10 10 3 3 6 10 10 13 17 23 19 22 24 24 24 23 23 23 22 21 20 19 19 19 19 13
14 14 15 19 17 19 21 24 23 23 22 20 19 19 19 19 20 20 21 20 22 22 21 19 18 18 20 20 18 21 29 30 25 20 19 13 14 15 12 11 8 7 11 10 14 14 9 12 11 9 5 5 1 3 4 10 12 13 14 15 15 22 23 23 22 22 22 21 21 21 21 22 18 11
14 14 15 17 19 23 24 24 24 23 22 20 19 18 15 17 19 20 20 21 21 21 19 20 19 20 19 18 16 16 16 18 20 19 18 16 14 14 12 12 12 11 8 9 17 14 6 10 11 11 12 10 6 5 1 5 13 14 14 13 13 17 19 21 18 22 21 21 22 22 23 22 16 12
14 14 15 14 19 24 24 23 23 23 22 21 18 18 16 17 20 23 17 21 26 18 18 18 17 15 13 12 12 13 13 13 13 14 15 15 15 15 12 12 13 14 6 10 19 12 8 11 10 9 5 2 3 6 2 3 8 11 13 15 14 14 13 13 12 14 20 22 22 23 22 20 16 14
12 15 15 15 19 23 23 23 23 23 21 22 18 19 23 25 26 21 18 16 16 15 16 14 14 14 12 11 10 8 7 7 9 11 12 13 12 14 13 11 12 13 11 10 22 14 8 10 13 13 7 6 3 6 7 3 4 6 9 10 14 14 13 12 12 12 12 12 12 15 16 17 14 15
12 12 13 14 20 22 22 22 22 21 21 19 18 24 24 26 26 21 14 14 14 15 14 12 12 13 11 12 10 9 9 6 5 4 3 6 9 10 9 10 11 11 5 12 18 15 12 9 11 15 12 8 9 6 8 8 6 5 8 9 11 12 12 12 13 13 11 11 10 16 14 13 14 14
11 12 13 14 20 20 20 21 21 19 19 17 23 23 25 26 23 15 16 17 18 18 18 15 14 14 12 11 9 10 8 7 5 3 3 3 2 5 4 4 2 3 7 11 15 14 11 10 13 13 15 15 14 13 9 5 4 12 12 6 12 12 12 14 13 12 12 11 12 10 10 10 9 11
11 12 15 16 17 17 18 19 18 17 18 21 21 22 24 24 14 15 16 18 17 19 17 15 14 13 13 12 12 10 9 8 7 5 5 7 6 5 6 6 6 5 5 9 13 13 12 9 11 11 10 11 11 9 11 12 12 9 12 15 11 12 11 12 13 13 14 13 14 10 10 11 10 9
14 14 14 15 16 16 16 15 15 15 15 19 20 22 24 14 15 15 18 18 16 15 15 14 14 13 13 14 11 10 9 9 10 8 7 7 7 6 4 5 7 6 5 4 5 4 3 4 4 8 10 9 11 13 11 12 8 10 12 11 10 10 10 13 13 15 15 13 12 10 9 8 10 11
12 13 13 12 13 12 15 15 14 16 18 16 18 18 16 14 14 13 14 16 15 14 15 15 15 15 13 13 12 11 11 11 10 10 8 9 7 7 9 10 9 8 8 8 8 7 6 7 8 8 6 6 7 7 11 13 15 11 7 11 17 17 13 13 12 13 15 14 12 11 10 10 9 9
11 11 11 12 13 13 14 16 15 15 14 15 15 14 15 14 15 16 19 16 13 14 14 13 13 15 10 12 13 12 12 12 11 12 11 10 9 8 9 10 9 8 9 10 11 12 12 9 9 8 7 6 10 9 7 8 14 14 11 9 9 9 11 16 13 11 16 16 14 12 10 9 10 8
10 10 12 13 14 15 14 15 15 15 15 15 15 16 15 15 15 15 15 15 16 15 15 17 14 12 11 12 14 14 13 13 14 14 15 14 13 12 14 13 10 8 9 10 12 13 12 14 14 14 12 12 9 8 13 11 6 8 13 12 12 11 10 12 13 14 15 16 14 13 11 9 8 8
9 10 10 12 13 13 13 14 14 14 13 13 14 14 15 15 15 14 14 14 14 14 15 14 15 15 15 15 14 15 14 14 13 14 15 16 15 15 15 13 11 10 10 10 10 11 11 13 14 15 16 16 15 14 8 10 13 9 9 11 15 13 10 11 13 14 13 14 15 13 12 10 8 7
10 10 10 11 11 11 11 12 12 13 13 13 12 13 13 13 14 14 13 13 13 14 14 14 14 14 15 14 14 14 14 14 13 13 13 14 14 16 14 12 12 10 10 10 9 7 9 12 13 13 12 12 14 13 22 14 10 13 10 10 12 15 13 11 13 13 14 12 14 15 11 10 9 7
10 9 9 10 10 10 11 11 11 12 12 12 12 11 12 12 11 11 12 14 13 13 14 14 14 14 14 13 13 14 14 14 13 14 15 15 13 12 14 14 13 13 11 10 9 7 6 7 11 13 12 10 12 10 7 20 18 8 17 12 12 13 13 12 12 13 13 12 10 14 13 14 10 9
10 9 10 11 11 11 11 11 11 11 11 12 12 11 10 11 10 11 13 13 14 13 14 14 14 14 15 14 13 14 13 14 13 12 14 15 16 15 13 11 12 12 13 12 10 9 8 7 7 14 13 13 13 12 9 5 19 19 8 17 12 11 13 13 14 12 10 12 10 10 10 12 11 11
9 10 11 11 11 11 11 11 11 10 11 11 11 11 11 11 11 13 13 12 14 13 14 14 14 15 14 14 14 12 12 13 14 13 12 13 13 14 12 11 12 12 12 12 11 11 9 9 8 7 11 14 13 14 13 8 8 12 15 14 17 12 14 16 12 13 11 8 11 9 10 10 10 10
10 10 10 11 11 11 12 12 10 11 12 12 11 12 11 12 13 13 12 11 11 10 11 12 13 13 14 14 14 13 12 13 13 12 13 13 12 13 12 12 12 11 12 12 13 12 12 12 10 10 9 12 12 9 13 13 13 10 14 17 12 13 9 12 14 14 14 13 12 11 10 9 13 16
10 9 10 10 11 11 11 11 11 12 12 12 12 12 12 12 12 12 11 10 10 10 9 10 12 13 12 13 13 14 14 14 14 13 12 13 13 12 11 9 11 12 13 14 17 15 15 13 11 11 12 14 12 12 14 15 11 9 11 15 17 12 9 10 10 12 11 10 11 11 10 8 8 7
9 10 10 10 10 11 11 11 11 11 12 12 12 12 12 13 13 13 11 13 10 10 10 10 10 11 9 12 13 11 11 13 12 13 13 13 13 12 15 14 13 11 13 13 15 17 14 11 13 17 16 13 13 13 15 13 13 12 12 10 16 17 15 11 10 10 11 11 11 9 10 8 9 9
9 9 10 10 10 10 10 11 11 11 11 12 12 11 12 11 10 16 13 14 12 12 10 10 9 10 10 10 10 11 11 11 13 13 14 14 14 14 15 13 13 11 12 13 12 11 10 10 10 11 10 10 9 14 14 12 13 10 11 9 9 15 19 19 18 14 10 8 9 9 9 10 9 9
9 9 9 10 9 10 10 10 10 10 10 11 11 11 10 10 10 12 12 12 12 11 11 11 10 9 9 9 9 9 11 12 11 14 15 16 14 13 13 12 10 10 11 10 10 10 10 11 10 11 9 8 9 12 13 11 10 11 11 10 9 9 11 16 18 18 18 18 14 7 4 6 8 8
8 9 9 9 9 10 10 10 10 10 10 9 9 9 10 10 11 11 11 11 12 11 11 11 11 10 9 9 8 8 9 10 10 10 11 11 12 12 13 12 11 11 11 10 10 11 10 11 10 8 10 10 6 9 13 11 10 8 9 8 8 10 11 9 9 12 13 16 17 13 11 9 8 7
8 8 8 8 8 9 9 9 9 9 9 8 8 9 9 9 10 10 11 11 11 11 11 10 10 10 10 9 9 9 8 9 9 9 9 10 10 10 10 9 11 12 11 9 9 10 9 10 9 9 10 9 8 10 10 11 10 9 9 9 9 9 8 7 7 7 6 5 13 13 8 11 13 14
Wind_Direction
346 345 344 338 331 330 328 323 322 316 311 314 316 315 312 306 295 292 289 276 288 278 226 236 219 221 229 222 215 226 236 239 223 209 193 211 221 192 199 200 202 195 193 197 200 202 200 193 191 190 190 192 188 189 189 188 181 180 183 182 184 195 190 177 183 190 190 190 184 181 179 176 182 180
342 342 342 343 339 338 335 332 325 320 319 315 314 314 312 310 304 293 286 282 276 286 238 210 237 221 227 224 214 211 226 239 211 228 215 210 215 190 192 198 200 198 193 195 199 201 200 197 192 190 188 191 190 187 185 185 184 184 190 186 188 187 182 179 180 190 189 197 182 178 177 178 184 180
344 341 340 340 337 338 337 332 330 327 323 320 319 315 311 311 314 312 299 286 261 231 278 233 214 233 235 217 219 223 220 232 216 228 226 224 216 195 191 195 198 199 196 194 198 200 201 199 194 192 189 190 190 188 185 184 182 185 193 188 186 190 179 183 178 190 195 203 181 176 179 180 174 167
345 343 342 341 340 339 337 335 333 330 327 324 326 329 329 330 334 329 325 313 303 275 260 256 216 228 238 213 225 228 229 237 227 228 229 228 219 199 205 196 198 198 198 196 197 199 199 198 195 192 191 191 190 187 187 183 180 184 189 185 184 188 180 184 181 190 198 206 183 174 178 175 174 172
347 345 342 342 342 340 337 337 334 335 337 340 337 333 330 326 331 336 326 319 316 314 290 256 245 229 222 239 213 230 227 219 219 221 233 231 225 220 220 202 198 199 199 199 197 198 199 197 195 192 191 191 189 186 185 183 182 183 184 182 183 183 181 183 184 188 201 204 184 176 174 180 178 175
349 344 344 344 344 345 340 338 337 337 341 340 336 336 335 330 328 330 321 320 318 311 321 310 278 242 211 232 218 228 227 227 223 216 226 232 227 222 218 199 201 202 204 202 199 198 198 196 197 191 190 189 188 184 184 184 183 183 182 181 183 185 183 183 186 186 199 201 185 178 172 179 180 177
349 348 345 345 345 344 341 342 339 340 342 339 335 333 333 329 327 328 329 323 316 314 309 307 304 278 230 223 225 219 226 229 219 221 218 224 228 224 222 210 211 191 203 203 201 199 197 196 197 194 189 188 187 184 184 184 184 183 180 181 183 186 187 184 185 188 198 199 183 178 174 176 179 176
349 349 346 345 345 344 341 342 342 342 341 338 334 332 332 329 328 326 324 321 311 307 303 309 307 305 285 240 231 225 222 227 227 223 229 219 225 225 222 222 219 197 196 200 200 198 197 196 196 195 190 188 187 185 183 183 184 185 180 181 184 185 188 186 184 189 198 198 180 178 177 176 183 181
349 350 348 344 345 345 342 341 342 342 340 338 335 333 331 329 326 324 321 317 312 305 300 300 299 296 290 275 245 218 222 226 232 230 225 218 220 223 221 230 226 198 189 198 199 198 197 196 195 194 191 188 187 185 183 182 183 185 184 182 184 185 187 186 186 189 194 195 182 180 180 181 184 184
352 350 350 346 346 345 344 341 340 339 338 337 333 331 330 328 324 321 316 315 313 304 293 291 298 298 297 292 262 230 218 223 227 230 230 228 223 215 219 223 224 213 177 202 203 199 196 197 195 195 192 189 187 185 184 183 183 185 185 184 185 186 186 186 186 190 190 188 183 182 181 182 188 187
350 350 353 349 348 347 345 343 341 339 337 335 331 330 329 326 325 319 316 315 310 306 301 297 288 289 290 285 281 252 221 220 224 225 227 230 222 211 206 210 214 217 205 194 196 194 195 196 197 195 193 189 187 186 185 184 183 184 186 186 186 186 186 187 187 189 192 188 183 184 180 183 191 193
353 351 350 348 347 346 345 343 338 337 336 333 327 326 324 322 320 317 313 311 308 303 302 295 299 296 292 289 277 271 244 224 225 223 225 230 222 216 211 209 207 206 208 201 191 205 208 201 196 192 194 192 189 187 185 186 184 184 185 186 187 186 187 187 188 188 191 190 186 186 183 181 190 196
356 354 349 344 341 338 336 333 326 328 333 330 326 321 320 318 314 311 309 306 302 300 296 295 293 291 289 284 287 281 256 232 230 217 216 229 228 219 211 215 210 206 192 199 181 195 182 196 204 194 191 195 193 189 186 187 186 185 185 185 186 187 187 187 186 187 188 192 190 189 188 183 188 197
355 352 348 342 340 335 334 332 331 335 332 327 319 315 314 311 307 302 302 300 301 298 295 293 294 292 289 286 282 280 272 259 245 232 220 224 225 213 216 212 213 203 192 195 197 193 182 187 194 192 194 195 189 192 189 189 189 187 183 184 185 186 186 186 186 185 186 188 189 190 190 188 189 193
354 351 349 346 342 341 339 336 333 332 329 321 314 308 303 298 294 297 293 288 293 296 290 290 288 285 285 284 281 276 277 272 255 243 229 228 221 215 204 213 204 199 195 191 168 177 183 189 195 195 195 192 184 192 190 190 186 184 183 184 185 186 186 186 186 185 185 185 187 189 189 190 189 190
354 351 348 347 345 343 342 339 338 334 328 321 313 307 302 298 288 270 269 283 288 285 288 287 282 284 281 284 281 279 277 275 269 252 242 228 220 216 214 215 210 190 169 183 194 199 168 187 199 189 195 190 185 194 191 188 182 183 184 184 186 186 186 186 186 186 186 184 185 186 188 188 188 188
355 353 350 347 345 343 343 342 342 337 331 326 317 307 302 297 297 295 275 257 265 280 278 282 281 275 280 278 275 273 275 279 274 264 246 239 233 224 222 220 221 167 179 173 196 202 178 176 180 193 198 191 185 193 191 186 183 184 184 185 186 186 185 186 186 186 186 186 184 184 185 185 185 185
357 357 353 349 345 344 344 343 343 338 334 329 323 320 316 311 308 304 297 287 271 260 266 268 271 274 270 269 274 274 275 277 276 277 261 238 234 231 229 221 203 151 174 191 178 198 191 189 178 196 197 190 192 192 190 186 186 185 185 184 184 185 185 185 185 185 185 185 183 181 181 182 181 180
358 357 354 351 348 345 343 343 342 337 334 330 326 322 319 317 313 309 307 306 305 299 288 280 277 276 274 271 271 272 270 267 265 263 272 268 249 237 232 215 199 181 195 187 178 204 184 172 194 199 187 186 193 194 190 186 186 186 185 184 183 184 184 184 184 183 183 181 181 178 178 177 174 171
360 357 355 353 351 347 343 344 337 332 331 331 329 326 323 321 315 309 305 297 289 286 284 281 277 275 270 268 266 267 266 267 273 290 290 280 258 243 223 214 186 197 192 189 189 203 190 178 194 200 194 188 195 193 192 184 186 185 185 184 183 181 181 182 181 180 178 178 177 176 173 170 163 157
360 358 355 355 353 348 346 341 333 331 330 335 332 328 326 323 320 317 316 311 301 286 277 272 267 264 262 259 258 257 256 253 257 267 273 269 261 234 221 210 189 199 168 195 193 193 186 176 191 195 191 190 190 185 185 176 186 184 185 184 181 179 179 179 178 176 175 174 172 169 163 155 145 136
1 359 358 356 354 351 346 337 332 333 337 340 334 330 328 327 325 322 321 317 309 299 283 274 268 263 258 256 250 249 250 248 240 232 241 244 248 231 221 214 203 187 181 196 178 184 209 166 187 185 104 139 206 192 184 178 179 184 183 183 179 177 176 175 174 172 170 167 163 158 150 143 138 142
0 358 357 353 349 345 337 334 335 335 340 342 337 333 329 326 324 323 320 316 316 317 316 308 302 292 276 263 248 243 241 241 235 227 232 239 241 235 215 208 196 198 210 192 172 192 192 162 184 158 140 193 326 356 193 163 127 166 173 177 181 176 172 173 169 166 163 159 155 150 146 147 151 155
3 1 357 357 350 341 337 335 335 335 336 341 339 337 332 325 322 320 316 316 319 317 312 308 308 305 302 289 269 252 245 236 226 222 219 225 233 239 218 206 202 205 191 171 176 193 169 168 170 180 180 169 194 184 182 153 173 174 166 165 167 175 169 164 162 160 155 152 150 149 150 155 157 151
5 1 0 353 345 338 333 332 333 334 335 337 341 342 333 323 315 317 318 319 320 318 316 313 312 309 308 304 282 250 245 239 227 213 212 219 224 234 230 213 209 216 186 169 181 188 171 180 167 171 184 54 73 121 160 103 167 175 170 165 139 153 159 157 151 154 149 146 148 150 154 157 156 153
4 2 359 352 340 332 330 330 332 334 337 336 345 339 331 327 329 327 320 319 322 323 324 317 318 317 316 318 316 308 280 249 224 214 209 215 222 227 240 229 216 217 206 166 176 189 154 187 172 168 152 130 136 140 128 144 70 144 158 156 154 152 153 145 134 135 140 143 142 151 154 154 145 140
357 351 344 342 333 329 328 331 332 333 337 344 344 334 336 334 331 328 326 325 327 325 320 318 319 323 322 332 329 322 325 335 342 338 273 229 218 225 241 247 244 234 205 155 187 187 178 174 164 166 170 157 136 135 150 145 155 137 109 134 141 138 137 130 128 130 129 132 128 130 125 115 116 119
351 348 343 329 321 326 329 331 332 333 342 345 339 340 340 336 334 332 335 342 333 331 335 334 334 331 325 326 327 332 329 331 349 354 12 24 279 245 222 222 133 88 134 168 182 193 188 174 179 182 163 158 159 160 152 31 120 149 136 123 135 131 138 136 132 131 130 123 125 132 130 127 119 106
345 323 314 315 325 325 330 332 335 343 349 344 342 343 343 342 339 338 343 339 332 339 339 331 329 331 333 332 329 322 325 351 24 45 48 55 48 58 81 66 55 70 139 172 183 187 186 185 181 164 156 161 155 160 149 152 147 145 142 132 128 134 131 132 131 130 131 130 137 134 137 137 131 120
323 329 326 328 333 339 339 344 351 348 345 342 348 350 351 345 342 343 342 339 339 338 331 332 335 333 327 331 330 331 349 10 27 35 50 52 45 45 48 60 49 42 55 127 157 133 76 75 129 171 163 163 158 150 142 127 124 141 147 133 110 99 123 132 134 134 129 128 126 123 124 122 127 129
345 339 337 334 322 332 326 336 341 350 346 348 358 357 352 349 347 340 344 341 338 335 334 336 338 334 335 333 340 359 6 13 19 30 42 53 40 54 69 74 61 53 55 63 70 77 100 108 110 115 122 117 99 126 147 138 135 141 135 145 147 148 149 128 128 130 128 121 117 112 116 117 116 113
335 341 340 348 1 359 2 2 3 359 355 352 355 353 353 350 350 346 344 347 351 348 340 338 341 344 331 345 355 358 10 11 17 28 40 43 47 42 67 68 58 61 67 65 71 72 73 67 71 72 88 108 117 110 90 122 137 135 132 132 97 97 123 130 124 128 122 118 115 115 117 114 116 109
344 351 356 2 2 5 3 3 360 357 356 354 349 352 355 352 353 352 358 357 353 348 350 353 347 343 343 353 1 3 8 13 18 26 41 46 56 57 62 62 55 51 60 68 73 73 76 80 74 76 72 63 62 99 124 111 79 116 131 123 118 113 120 114 122 124 121 113 114 115 109 103 99 108
357 356 4 4 4 359 4 0 358 353 352 351 349 347 348 354 355 354 355 355 349 349 352 351 353 355 356 2 1 4 6 8 15 18 29 45 49 55 59 58 55 53 58 64 70 81 85 89 91 83 79 71 62 48 46 109 117 116 107 123 120 113 107 118 118 116 113 117 119 111 111 104 97 102
10 3 4 4 1 360 359 359 354 351 351 351 350 348 343 349 351 352 355 351 348 353 352 354 358 359 2 2 1 5 7 12 16 24 27 38 43 50 49 50 48 47 58 63 60 59 86 95 97 92 84 86 74 50 33 30 126 109 110 104 112 111 117 116 112 112 112 115 116 114 112 109 112 110
13 7 4 2 0 356 358 356 351 348 349 347 348 347 348 348 348 347 352 348 352 355 358 359 1 2 2 1 2 7 10 16 16 22 29 31 32 39 45 46 46 47 46 46 49 49 64 85 104 101 98 87 89 76 36 19 28 123 116 112 102 107 106 104 103 103 107 107 110 119 118 123 120 122
10 8 7 5 2 360 357 355 351 346 347 348 345 347 345 346 342 349 353 352 359 359 3 4 6 5 4 3 6 9 11 17 18 13 26 33 39 42 47 43 42 42 44 38 41 38 48 63 77 106 105 105 97 89 62 2 33 20 116 111 99 95 107 106 105 98 95 103 104 104 115 121 125 127
10 7 6 4 4 1 356 354 351 349 348 348 348 345 345 342 344 346 349 356 360 2 5 9 9 10 9 7 8 5 10 17 22 21 23 24 32 38 41 45 47 46 47 44 39 37 37 49 47 61 112 114 113 103 99 64 59 33 22 94 102 101 100 98 85 99 100 97 100 104 107 108 115 120
9 6 7 5 4 2 359 355 351 351 351 351 352 352 347 348 350 349 350 347 345 350 1 7 10 11 13 11 14 15 13 16 17 18 24 26 27 33 35 41 49 42 53 50 48 44 45 46 52 56 63 91 90 93 103 105 78 77 52 46 92 101 94 100 103 102 103 97 91 85 76 80 90 98
2 3 5 2 3 2 360 357 355 353 353 354 354 354 353 355 357 354 353 351 347 342 353 1 6 12 16 17 16 18 21 21 21 23 24 30 30 31 37 40 49 54 57 53 54 51 52 50 50 63 71 73 83 89 92 85 85 65 65 47 51 75 98 108 100 108 102 103 112 110 110 107 110 117
359 3 6 2 3 2 0 359 356 354 354 354 355 353 353 355 358 356 355 359 350 351 355 360 1 2 358 12 17 12 15 23 21 21 23 31 32 32 38 40 45 40 56 53 55 58 56 59 67 75 81 90 96 100 87 77 74 76 70 67 58 64 67 74 100 109 106 115 111 104 106 109 121 123
358 1 1 2 0 1 1 359 357 356 354 354 355 354 352 351 354 351 354 357 353 353 350 358 360 359 2 3 9 19 27 26 30 27 28 32 35 37 34 36 42 37 44 50 48 50 54 58 61 63 74 80 80 86 82 80 85 78 77 71 69 63 68 71 68 67 82 111 118 110 105 111 117 117
0 1 360 0 358 0 2 359 359 359 357 354 352 352 351 354 356 356 0 358 356 355 353 354 359 2 1 5 9 11 27 32 30 37 39 38 36 37 37 36 38 39 42 47 48 47 49 53 55 63 55 56 69 80 86 88 85 85 84 81 82 85 72 65 66 63 54 42 33 45 73 126 136 140
358 357 0 358 1 2 3 1 359 358 359 355 350 352 355 358 357 358 360 358 357 355 352 355 355 358 359 3 6 16 24 27 31 32 36 38 42 42 46 46 44 45 48 48 48 49 47 51 51 49 60 56 42 74 89 88 86 82 90 87 95 94 97 96 82 66 52 37 22 16 35 43 51 106
355 355 357 359 0 3 359 359 357 356 357 353 353 357 356 359 358 358 360 357 356 348 350 356 356 356 359 4 11 14 18 28 32 34 37 41 42 44 44 40 48 50 49 47 56 53 48 57 51 47 58 55 54 76 82 86 89 93 91 94 95 98 104 106 96 84 65 53 12 10 56 85 93 91